TimeCST,TemperatureF,Dew PointF,Humidity,Sea Level PressureIn,VisibilityMPH,Wind Direction,Wind SpeedMPH,Gust SpeedMPH,PrecipitationIn,Events,Conditions,WindDirDegrees,DateUTC
12:56 AM,30.0,27.0,88,30.35,10.0,NW,4.6,-,N/A,,Clear,320,2013-03-07 06:56:00
1:56 AM,28.9,26.1,89,30.34,9.0,NNW,4.6,-,N/A,,Clear,330,2013-03-07 07:56:00
2:56 AM,30.0,27.0,88,30.33,9.0,WNW,3.5,-,N/A,,Clear,290,2013-03-07 08:56:00
3:56 AM,30.0,27.0,88,30.33,9.0,North,4.6,-,N/A,,Clear,360,2013-03-07 09:56:00
4:56 AM,30.9,27.0,85,30.35,9.0,NNW,5.8,-,N/A,,Clear,330,2013-03-07 10:56:00
5:56 AM,32.0,27.0,82,30.37,10.0,NNW,3.5,-,N/A,,Clear,330,2013-03-07 11:56:00
6:56 AM,33.1,27.0,78,30.38,10.0,Calm,Calm,-,N/A,,Mostly Cloudy,0,2013-03-07 12:56:00
7:56 AM,36.0,28.0,73,30.40,10.0,North,3.5,-,N/A,,Mostly Cloudy,10,2013-03-07 13:56:00
8:56 AM,39.9,28.0,63,30.43,10.0,North,5.8,-,N/A,,Scattered Clouds,10,2013-03-07 14:56:00
9:56 AM,45.0,28.0,52,30.42,10.0,NNE,8.1,-,N/A,,Clear,20,2013-03-07 15:56:00
10:56 AM,48.0,28.0,46,30.40,10.0,North,6.9,-,N/A,,Mostly Cloudy,360,2013-03-07 16:56:00
11:56 AM,52.0,27.0,38,30.38,10.0,Variable,3.5,-,N/A,,Scattered Clouds,0,2013-03-07 17:56:00
12:56 PM,54.0,27.0,35,30.33,10.0,Calm,Calm,-,N/A,,Scattered Clouds,0,2013-03-07 18:56:00
1:56 PM,57.0,28.0,33,30.32,10.0,NNW,5.8,-,N/A,,Scattered Clouds,340,2013-03-07 19:56:00
2:56 PM,59.0,27.0,29,30.30,10.0,North,4.6,-,N/A,,Partly Cloudy,360,2013-03-07 20:56:00
3:56 PM,60.1,28.0,30,30.30,10.0,Calm,Calm,-,N/A,,Mostly Cloudy,0,2013-03-07 21:56:00
4:56 PM,59.0,28.0,31,30.29,10.0,North,5.8,-,N/A,,Mostly Cloudy,350,2013-03-07 22:56:00
5:56 PM,55.0,30.9,40,30.30,10.0,NE,4.6,-,N/A,,Scattered Clouds,40,2013-03-07 23:56:00
6:56 PM,51.1,33.1,50,30.31,10.0,ENE,4.6,-,N/A,,Scattered Clouds,60,2013-03-08 00:56:00
7:56 PM,50.0,32.0,50,30.31,10.0,Calm,Calm,-,N/A,,Clear,0,2013-03-08 01:56:00
8:56 PM,41.0,34.0,76,30.31,10.0,Calm,Calm,-,N/A,,Clear,0,2013-03-08 02:56:00
9:56 PM,41.0,34.0,76,30.31,10.0,Calm,Calm,-,N/A,,Clear,0,2013-03-08 03:56:00
10:56 PM,37.0,33.1,86,30.32,10.0,Calm,Calm,-,N/A,,Clear,0,2013-03-08 04:56:00
11:56 PM,36.0,33.1,89,30.32,10.0,Calm,Calm,-,N/A,,Clear,0,2013-03-08 05:56:00